{"data":{"norad_id":63875,"intl_designator":"2025-094M","name":"STARLINK-34023","alt_names":[],"object_type":"PAYLOAD","status":"ACTIVE","operator":null,"country":"US","launch_date":"2025-05-10","launch_site_code":"AFWTR","launch_vehicle":null,"mission":null,"orbit_class":"UNKNOWN","rcs_meters":null,"size_class":null,"mass_kg":null,"dimensions":null,"purposes":["comms"],"wikipedia_slug":null,"has_3d_model":false,"image_url":null,"decayed_at":null,"tle_current":{"epoch":"2026-09-20T22:34:14.463552Z","epoch_age_seconds":108987,"freshness":"FRESH","line1":"1 63875U 25094M   26263.94044518  .00010645  00000+0  37373-3 0  9994","line2":"2 63875  69.9990  99.6203 0006146 302.1390  57.9188 15.29612664 76505","mean_motion":15.29612664,"eccentricity":0.0006146,"inclination_deg":69.999,"raan_deg":99.6203,"arg_perigee_deg":302.139,"mean_anomaly_deg":57.9188,"bstar":0.00037373,"rev_number":7650,"period_min":94.141479989734,"perigee_km":472.75616162899,"apogee_km":481.1824583052,"semimajor_km":6855.1063099671,"source":"CELESTRAK","updated_at":"2026-09-21T09:00:35.139576Z"}}}